Content
SEND FEEDBACK

Daily
Averages
Monthly
Summary
United States of America

WEST POINT, CALIFORNIA


Home > North America > United States > California
Elevation: 2740 feet     Latitude: 38 24N     Longitude: 120 32W

WEATHER
 
SELECT A DAY
Number of Records: 93,564;   Date Range: 7/10/09 - 7/24/14
 
SHARE

PRINT THIS DATA

[ ← Previous Day ]
WEATHER ALMANAC - JANUARY 31, 2013
[ Next Day → ]
[ °C ]   °F
Weather ElementAverageHighLow
Temperature51.2 °F62.6 °F (1:55 pm)44.6 °F (3:55 am)
Dewpoint34.4 °F41 °F (3:35 pm)26.6 °F (6:35 am)
Humidity53.7 %71 % (4:15 am)32 % (1:55 pm)
Wind Speed4.1 mph10.4 mph (8:15 pm)
Weather ElementAverage
Visibility10 mi
Wind DirectionESE (113.8 °)

Weather ElementTotal
Precipitation---
Heating Degree Days11.4 (Base 65)
Growing Degree Days3.6 (Base 50)
Averaged from 68 records on January 31, 2013
WEATHER CONDITIONS BREAKOUT
WIND DIRECTION BREAKOUT
WEATHER BY HOUR - JANUARY 31, 2013
[ °C ]   °F
Local TimeTemperatureDewpointHumidityBarometerVisibilityWind DirectionWind SpeedGust SpeedPrecipitationEventsConditions
12:35 AM48.2 °F33.8 °F58 %NNW (340°)3.5 mphClear
12:55 AM50.0 °F35.6 °F58 %CalmClear
1:15 AM48.2 °F35.6 °F62 %NNW (330°)4.6 mphClear
1:35 AM48.2 °F32.0 °F54 %NE (40°)3.5 mphClear
1:55 AM48.2 °F28.4 °F46 %NNE (30°)4.6 mphClear
2:15 AM48.2 °F28.4 °F46 %East (100°)5.8 mphClear
2:35 AM46.4 °F32.0 °F57 %East (100°)8.1 mphClear
2:55 AM46.4 °F28.4 °F50 %East (100°)6.9 mphClear
3:15 AM46.4 °F28.4 °F50 %South (170°)3.5 mphClear
3:35 AM46.4 °F30.2 °F53 %CalmClear
3:55 AM44.6 °F32.0 °F61 %CalmClear
4:15 AM44.6 °F35.6 °F71 %CalmClear
4:35 AM44.6 °F33.8 °F66 %East (100°)3.5 mphClear
4:55 AM44.6 °F33.8 °F66 %CalmClear
5:15 AM46.4 °F35.6 °F66 %East (90°)3.5 mphClear
5:35 AM46.4 °F35.6 °F66 %CalmClear
5:55 AM48.2 °F33.8 °F58 %CalmClear
6:15 AM46.4 °F32.0 °F57 %CalmClear
6:35 AM44.6 °F26.6 °F49 %CalmClear
6:55 AM46.4 °F28.4 °F50 %CalmClear
7:15 AM46.4 °F32.0 °F57 %CalmClear
7:35 AM46.4 °F32.0 °F57 %CalmClear
7:55 AM46.4 °F32.0 °F57 %CalmClear
8:15 AM46.4 °F28.4 °F50 %ESE (110°)3.5 mphClear
8:35 AM46.4 °F30.2 °F53 %ESE (120°)3.5 mphClear
8:55 AM48.2 °F32.0 °F54 %CalmClear
9:15 AM50.0 °F32.0 °F50 %East (100°)3.5 mphClear
9:35 AM50.0 °F32.0 °F50 %East (100°)3.5 mphClear
9:55 AM51.8 °F32.0 °F47 %East (90°)3.5 mphClear
10:15 AM53.6 °F32.0 °F44 %SSW (200°)3.5 mphClear
10:35 AM55.4 °F32.0 °F41 %SSW (200°)3.5 mphClear
10:55 AM55.4 °F32.0 °F41 %CalmClear
11:15 AM55.4 °F32.0 °F41 %CalmClear
11:35 AM57.2 °F33.8 °F41 %South (190°)3.5 mphClear
11:55 AM59.0 °F32.0 °F36 %SSW (200°)3.5 mphClear
12:15 PM59.0 °F32.0 °F36 %SSE (150°)3.5 mphClear
12:35 PM59.0 °F35.6 °F42 %South (180°)3.5 mphClear
12:55 PM60.8 °F35.6 °F39 %SW (230°)4.6 mphClear
1:15 PM60.8 °F32.0 °F34 %South (190°)5.8 mphClear
1:55 PM62.6 °F32.0 °F32 %SW (220°)4.6 mphClear
2:15 PM62.6 °F35.6 °F37 %30.24 in10.0 miWest (270°)4.6 mphClear
2:35 PM62.6 °F37.4 °F39 %30.24 in10.0 miWest (260°)6.9 mphClear
2:55 PM60.8 °F39.2 °F45 %30.24 in10.0 miSW (230°)6.9 mphClear
3:15 PM60.8 °F39.2 °F45 %30.24 in10.0 miSW (230°)6.9 mphClear
3:35 PM59.0 °F41.0 °F51 %30.24 in10.0 miSW (230°)6.9 mphClear
3:55 PM59.0 °F41.0 °F51 %30.24 in10.0 miWSW (240°)5.8 mphClear
4:15 PM57.2 °F41.0 °F55 %30.24 in10.0 miWSW (240°)3.5 mphClear
4:35 PM57.2 °F41.0 °F55 %30.24 in10.0 miWSW (240°)4.6 mphClear
4:55 PM55.4 °F41.0 °F58 %30.24 in10.0 miSW (230°)3.5 mphClear
5:15 PM53.6 °F39.2 °F58 %30.23 in10.0 miWSW (240°)3.5 mphClear
5:35 PM53.6 °F39.2 °F58 %30.24 in10.0 miCalmClear
6:15 PM50.0 °F41.0 °F71 %30.24 in10.0 miNorth (350°)5.8 mphClear
6:35 PM50.0 °F41.0 °F71 %30.24 in10.0 miNorth (10°)4.6 mphClear
6:55 PM50.0 °F41.0 °F71 %30.24 in10.0 miNNE (20°)4.6 mphClear
7:15 PM50.0 °F41.0 °F71 %30.24 in10.0 miNNE (30°)6.9 mphClear
7:35 PM50.0 °F41.0 °F71 %30.23 in10.0 miENE (70°)9.2 mphClear
8:15 PM50.0 °F39.2 °F66 %30.23 in10.0 miEast (100°)10.4 mphClear
8:35 PM50.0 °F39.2 °F66 %30.23 in10.0 miEast (100°)9.2 mphClear
8:55 PM50.0 °F37.4 °F62 %30.22 in10.0 miESE (110°)9.2 mphClear
9:15 PM50.0 °F35.6 °F58 %30.23 in10.0 miEast (100°)6.9 mphClear
9:35 PM48.2 °F35.6 °F62 %30.23 in10.0 miEast (100°)6.9 mphClear
9:55 PM48.2 °F35.6 °F62 %30.22 in10.0 miEast (100°)6.9 mphClear
10:15 PM50.0 °F35.6 °F58 %30.22 in10.0 miEast (80°)6.9 mphClear
10:35 PM50.0 °F32.0 °F50 %30.22 in10.0 miEast (90°)5.8 mphClear
10:55 PM50.0 °F32.0 °F50 %30.22 in10.0 miEast (90°)6.9 mphClear
11:15 PM48.2 °F32.0 °F54 %30.22 in10.0 miEast (100°)5.8 mphClear
11:35 PM48.2 °F32.0 °F54 %30.22 in10.0 miESE (110°)8.1 mphClear
11:55 PM46.4 °F32.0 °F57 %30.22 in10.0 miEast (90°)8.1 mphClear
Hourly data recorded from KPVF, located miles away from West Point, California







STORIES FROM OUR PARTNERS